This is the latest recevied weather packets stored in our database for station/object K8JMX-13. If no packets are shown the sender has not sent any weather packets the latest 10 day(s).
| Time | Temp. | Humidity | Pressure | Rain* | Wind** | Luminosity | Snow |
|---|---|---|---|---|---|---|---|
| 1777655779 | 9.44° C | 81% | 1010.5 hPa | 0 mm | - | 53 W/m² | - |
| 1777655475 | 9.44° C | 80% | 1010.5 hPa | 0 mm | - | 74 W/m² | - |
| 1777655172 | 9.44° C | 80% | 1010.5 hPa | 0 mm | - | 71 W/m² | - |
| 1777654869 | 9.44° C | 79% | 1010.4 hPa | 0 mm | - | 107 W/m² | - |
| 1777654567 | 9.44° C | 81% | 1010.3 hPa | 0 mm | - | 239 W/m² | - |
| 1777654264 | 9.44° C | 81% | 1010.4 hPa | 0 mm | - | 89 W/m² | - |
| 1777653962 | 9.44° C | 80% | 1010.3 hPa | 0 mm | - | 82 W/m² | - |
| 1777653658 | 9.44° C | 81% | 1010.5 hPa | 0 mm | - | 164 W/m² | - |
| 1777653355 | 8.89° C | 82% | 1010.1 hPa | 0 mm | - | 369 W/m² | - |
| 1777653052 | 8.89° C | 83% | 1010.3 hPa | 0 mm | - | 241 W/m² | - |
| 1777652748 | 8.33° C | 83% | 1010.2 hPa | 0 mm | - | 154 W/m² | - |
| 1777652445 | 8.33° C | 84% | 1010.4 hPa | 0 mm | - | 141 W/m² | - |
| 1777652142 | 8.33° C | 84% | 1010.5 hPa | 1.27 mm | - | 82 W/m² | - |
| 1777651838 | 8.33° C | 85% | 1010.6 hPa | 0 mm | - | 43 W/m² | - |
| 1777651536 | 8.33° C | 86% | 1010.6 hPa | 0 mm | - | 45 W/m² | - |
| 1777651233 | 8.33° C | 86% | 1010.6 hPa | 0 mm | - | 59 W/m² | - |
| 1777650929 | 8.33° C | 85% | 1010.4 hPa | 1.78 mm | - | 37 W/m² | - |
| 1777650626 | 7.78° C | 85% | 1010.6 hPa | 1.78 mm | - | 40 W/m² | - |
| 1777650324 | 7.78° C | 85% | 1010.6 hPa | 0 mm | - | 45 W/m² | - |
| 1777650021 | 7.78° C | 85% | 1010.4 hPa | 0 mm | - | 45 W/m² | - |
| 1777649719 | 7.78° C | 85% | 1010.5 hPa | 1.27 mm | - | 34 W/m² | - |
| 1777649414 | 7.78° C | 84% | 1010.5 hPa | 1.27 mm | - | 61 W/m² | - |
| 1777649111 | 7.78° C | 85% | 1010.6 hPa | 1.78 mm | - | 105 W/m² | - |
| 1777648804 | 7.78° C | 85% | 1010.5 hPa | 1.78 mm | - | 114 W/m² | - |
| 1777648500 | 7.78° C | 84% | 1010.6 hPa | 1.27 mm | - | 54 W/m² | - |
* Rain latest hour (hover to see other rain measurements)
** Current wind speed in m/s (hover to see current wind gust speed)